Location: Chester
(43.2647°N, 72.5958°W)
Time: 05:08:59
(UTC-04:00)

OTV 5 (USA 277) - Visible Passes

Search period start: 20 September 2018 00:00
Search period end: 30 September 2018 00:00
Orbit: 387 x 394 km, 54.5° (Epoch: 08 September)

Date Brightness Start Highest point End Pass type
(mag) Time Alt. Az. Time Alt. Az. Time Alt. Az.
24 Sep ? 05:59:55 10° SSE 06:01:14 12° SE 06:02:32 10° ESE visible
26 Sep ? 05:41:40 10° S 05:44:14 22° SE 05:46:48 10° ENE visible
27 Sep ? 04:47:36 10° SE 04:48:09 10° SE 04:48:41 10° ESE visible
28 Sep ? 05:25:17 18° SSW 05:27:17 43° SE 05:30:22 10° ENE visible
29 Sep ? 04:31:32 19° ESE 04:31:32 19° ESE 04:33:31 10° E visible
29 Sep ? 06:03:56 11° WSW 06:06:50 44° NNW 06:09:56 10° NE visible
